Regional Weather Roundup
Issued by NWS

Home | Current Version | Previous Version | Text Only | Print | Product List | Glossary On
Versions: 1 2 3 4 5 6 7 8 9 10 11 12 13 14 15 16 17 18 19 20 21 22 23 24 25 26 27 28 29 30 31 32 33 34 35 36 37 38 39 40 41 42 43 44 45 46 47 48 49 50
000
ASCA42 TJSJ 260011
RWRPR
PUERTO RICO/U.S. VIRGIN ISLANDS HOURLY WEATHER ROUNDUP
NATIONAL WEATHER SERVICE SAN JUAN PR
800 PM AST THU DEC 25 2014

PRZ001-004-260100-
PUERTO RICO

CITY           SKY/WX    TMP DP  RH WIND       PRES   REMARKS
SAN JUAN LMM   PTCLDY    77  73  88 E9        30.07R
PONCE          PTCLDY    77  66  69 NE7       30.00S
AGUADILLA      PTCLDY    75  68  78 E16       30.08R
CEIBA          PTCLDY    79  70  73 NE8G17    30.09R
$$

PRZ006-007-260100-
U.S. VIRGIN ISLANDS

CITY           SKY/WX    TMP DP  RH WIND       PRES   REMARKS
CHRISTIANSTED  PTCLDY    73  72  94 NE10      30.06
$$

HOURLY WEATHER ROUNDUP FOR THE NEWS MEDIA

CITY           SKY/WX    TMP DP  RH WIND       PRES   REMARKS
MIAMI          CLOUDY    70  53  54 NE7       30.17R
ORLANDO        CLEAR     59  48  67 N3        30.21R
NEW YORK       PTCLDY    49  29  46 W15       30.01R
NEWARK         PTCLDY    47  30  51 W9        30.01R
CHICAGO        MOCLDY    40  34  79 S13       29.98R WCI  32
HARTFORD       CLEAR     46  30  53 W7        29.86R
BOSTON         CLEAR     47  30  51 W22       29.82R
DALLAS         MOCLDY    57  31  37 S10       29.93R
PHILADELPHIA   PTCLDY    48  29  47 W12       30.10R


USA.gov is the U.S. government's official web portal to all federal, state and local government web resources and services.